Time,TemperatureF,DewpointF,PressureIn,WindDirection,WindDirectionDegrees,WindSpeedMPH,WindSpeedGustMPH,Humidity,HourlyPrecipIn,Conditions,Clouds,dailyrainin,SoftwareType,DateUTC
2013-06-09 00:00:00,58.8,58.5,30.00,WSW,256,0.0,0.0,99,0.00,,---,0.00,VWS V14.01,2013-06-09 04:00:00,
2013-06-09 00:05:00,58.8,58.5,30.00,WSW,257,0.0,0.0,99,0.00,,---,0.00,VWS V14.01,2013-06-09 04:05:00,
2013-06-09 00:10:00,58.8,58.5,30.00,WSW,256,0.0,0.0,99,0.00,,---,0.00,VWS V14.01,2013-06-09 04:10:00,
2013-06-09 00:15:00,58.8,58.5,30.00,WSW,256,0.0,0.0,99,0.00,,---,0.00,VWS V14.01,2013-06-09 04:15:00,
2013-06-09 00:20:00,58.8,58.5,30.00,WSW,256,0.0,0.0,99,0.00,,---,0.00,VWS V14.01,2013-06-09 04:20:00,
2013-06-09 00:25:00,58.8,58.5,30.00,WSW,257,0.0,0.0,99,0.00,,---,0.00,VWS V14.01,2013-06-09 04:25:00,
2013-06-09 00:30:00,58.8,58.5,30.03,WSW,257,0.0,0.0,99,0.00,,---,0.00,VWS V14.01,2013-06-09 04:30:00,
2013-06-09 00:35:00,58.8,58.5,30.03,WSW,257,0.0,0.0,99,0.00,,---,0.00,VWS V14.01,2013-06-09 04:35:00,
2013-06-09 00:40:00,58.8,58.5,30.00,WSW,256,0.0,0.4,99,0.00,,---,0.00,VWS V14.01,2013-06-09 04:40:00,
2013-06-09 00:45:00,58.8,58.5,30.03,WSW,257,0.0,0.0,99,0.00,,---,0.00,VWS V14.01,2013-06-09 04:45:00,
2013-06-09 00:50:00,58.8,58.5,30.00,WSW,257,0.0,0.0,99,0.00,,---,0.00,VWS V14.01,2013-06-09 04:50:00,
2013-06-09 00:55:00,58.8,58.5,30.03,WSW,256,0.0,0.0,99,0.00,,---,0.00,VWS V14.01,2013-06-09 04:55:00,
2013-06-09 01:00:00,58.8,58.5,30.03,WSW,256,0.0,0.0,99,0.00,,---,0.00,VWS V14.01,2013-06-09 05:00:00,
2013-06-09 01:05:00,58.8,58.5,30.03,WSW,256,0.0,0.0,99,0.00,,---,0.00,VWS V14.01,2013-06-09 05:05:00,
2013-06-09 01:10:00,58.8,58.5,30.00,WSW,256,0.0,0.0,99,0.00,,---,0.00,VWS V14.01,2013-06-09 05:10:00,
2013-06-09 01:15:00,58.8,58.5,30.03,WSW,256,0.0,0.0,99,0.00,,---,0.00,VWS V14.01,2013-06-09 05:15:00,
2013-06-09 01:20:00,58.8,58.5,30.00,WSW,256,0.0,0.0,99,0.00,,---,0.00,VWS V14.01,2013-06-09 05:20:00,
2013-06-09 01:25:00,58.8,58.5,30.03,WSW,257,0.0,2.2,99,0.00,,---,0.00,VWS V14.01,2013-06-09 05:25:00,
2013-06-09 01:30:00,58.8,58.5,30.03,WSW,257,0.0,0.0,99,0.00,,---,0.00,VWS V14.01,2013-06-09 05:30:00,
2013-06-09 01:35:00,58.8,58.5,30.03,WSW,257,0.0,0.0,99,0.00,,---,0.00,VWS V14.01,2013-06-09 05:35:00,
2013-06-09 01:40:00,58.8,58.5,30.03,WSW,257,0.0,0.4,99,0.00,,---,0.00,VWS V14.01,2013-06-09 05:40:00,
2013-06-09 01:45:00,58.8,58.5,30.03,WSW,257,3.6,4.9,99,0.00,,---,0.00,VWS V14.01,2013-06-09 05:45:00,
2013-06-09 01:50:00,58.8,58.5,30.03,WSW,247,4.0,5.4,99,0.00,,---,0.00,VWS V14.01,2013-06-09 05:50:00,
2013-06-09 01:55:00,58.8,58.5,30.03,WSW,256,0.0,0.0,99,0.00,,---,0.00,VWS V14.01,2013-06-09 05:55:00,
2013-06-09 02:00:00,58.8,58.5,30.03,WSW,247,0.0,4.0,99,0.00,,---,0.00,VWS V14.01,2013-06-09 06:00:00,
2013-06-09 02:05:00,58.8,58.5,30.03,WSW,256,0.0,0.0,99,0.00,,---,0.00,VWS V14.01,2013-06-09 06:05:00,
2013-06-09 02:10:00,58.8,58.5,30.03,WSW,257,0.0,0.0,99,0.00,,---,0.00,VWS V14.01,2013-06-09 06:10:00,
2013-06-09 02:15:00,58.8,58.5,30.03,WSW,247,2.7,3.6,99,0.00,,---,0.00,VWS V14.01,2013-06-09 06:15:00,
2013-06-09 02:20:00,58.8,58.5,30.03,WSW,243,2.2,3.6,99,0.00,,---,0.00,VWS V14.01,2013-06-09 06:20:00,
2013-06-09 02:25:00,58.8,58.5,30.03,WSW,257,0.0,2.2,99,0.00,,---,0.00,VWS V14.01,2013-06-09 06:25:00,
2013-06-09 02:30:00,58.8,58.5,30.03,WSW,243,3.1,4.9,99,0.00,,---,0.00,VWS V14.01,2013-06-09 06:30:00,
2013-06-09 02:35:00,58.8,58.5,30.03,WSW,257,0.0,0.0,99,0.00,,---,0.00,VWS V14.01,2013-06-09 06:35:00,
2013-06-09 02:40:00,58.8,58.5,30.03,WSW,243,1.8,4.5,99,0.00,,---,0.00,VWS V14.01,2013-06-09 06:40:00,
2013-06-09 02:45:00,58.8,58.5,30.03,WSW,243,0.0,2.7,99,0.00,,---,0.00,VWS V14.01,2013-06-09 06:45:00,
2013-06-09 02:50:00,58.8,58.5,30.03,WSW,247,4.0,5.4,99,0.00,,---,0.00,VWS V14.01,2013-06-09 06:50:00,
2013-06-09 02:55:00,58.8,58.5,30.03,WSW,247,4.0,4.5,99,0.00,,---,0.00,VWS V14.01,2013-06-09 06:55:00,
2013-06-09 03:00:00,58.8,58.5,30.03,WSW,242,0.0,0.0,99,0.00,,---,0.00,VWS V14.01,2013-06-09 07:00:00,
2013-06-09 03:05:00,58.8,58.5,30.03,WSW,242,0.0,0.0,99,0.00,,---,0.00,VWS V14.01,2013-06-09 07:05:00,
2013-06-09 03:10:00,58.8,58.5,30.03,WSW,247,0.0,0.0,99,0.00,,---,0.00,VWS V14.01,2013-06-09 07:10:00,
2013-06-09 03:15:00,58.8,58.5,30.03,WSW,242,0.0,0.0,99,0.00,,---,0.00,VWS V14.01,2013-06-09 07:15:00,
2013-06-09 03:20:00,58.8,58.5,30.03,WSW,243,2.2,3.6,99,0.00,,---,0.00,VWS V14.01,2013-06-09 07:20:00,
2013-06-09 03:25:00,58.8,58.5,30.03,WSW,243,4.0,4.5,99,0.00,,---,0.00,VWS V14.01,2013-06-09 07:25:00,
2013-06-09 03:30:00,58.8,58.5,30.03,WSW,242,4.5,4.9,99,0.00,,---,0.00,VWS V14.01,2013-06-09 07:30:00,
2013-06-09 03:35:00,58.8,58.5,30.03,WSW,243,3.1,4.9,99,0.00,,---,0.00,VWS V14.01,2013-06-09 07:35:00,
2013-06-09 03:40:00,58.8,58.5,30.03,WSW,242,3.1,3.6,99,0.00,,---,0.00,VWS V14.01,2013-06-09 07:40:00,
2013-06-09 03:45:00,58.8,58.5,30.03,WSW,243,0.0,2.7,99,0.00,,---,0.00,VWS V14.01,2013-06-09 07:45:00,
2013-06-09 03:50:00,58.8,58.5,30.03,WSW,238,3.6,4.9,99,0.00,,---,0.00,VWS V14.01,2013-06-09 07:50:00,
2013-06-09 03:55:00,58.8,58.5,30.03,WSW,242,0.0,0.0,99,0.00,,---,0.00,VWS V14.01,2013-06-09 07:55:00,
2013-06-09 04:00:00,58.8,58.5,30.03,WSW,238,4.0,4.5,99,0.00,,---,0.00,VWS V14.01,2013-06-09 08:00:00,
2013-06-09 04:05:00,58.8,58.5,30.03,WSW,242,0.0,0.0,99,0.00,,---,0.00,VWS V14.01,2013-06-09 08:05:00,
2013-06-09 04:10:00,58.8,58.5,30.03,SW,229,5.4,6.3,99,0.00,,---,0.00,VWS V14.01,2013-06-09 08:10:00,
2013-06-09 04:15:00,58.8,58.5,30.03,SW,218,6.3,8.1,99,0.00,,---,0.00,VWS V14.01,2013-06-09 08:15:00,
2013-06-09 04:20:00,58.8,58.5,30.03,SW,236,4.0,4.9,99,0.00,,---,0.00,VWS V14.01,2013-06-09 08:20:00,
2013-06-09 04:25:00,58.8,58.5,30.03,SW,221,4.9,6.7,99,0.00,,---,0.00,VWS V14.01,2013-06-09 08:25:00,
2013-06-09 04:30:00,58.8,58.5,30.03,SW,223,4.5,8.1,99,0.00,,---,0.00,VWS V14.01,2013-06-09 08:30:00,
2013-06-09 04:35:00,58.8,58.5,30.03,SW,223,4.0,6.3,99,0.00,,---,0.00,VWS V14.01,2013-06-09 08:35:00,
2013-06-09 04:40:00,58.8,58.5,30.03,WSW,242,3.1,3.6,99,0.00,,---,0.00,VWS V14.01,2013-06-09 08:40:00,
2013-06-09 04:45:00,58.8,58.5,30.06,SW,235,3.6,7.6,99,0.00,,---,0.00,VWS V14.01,2013-06-09 08:45:00,
2013-06-09 04:50:00,58.8,58.5,30.06,SW,235,5.4,5.8,99,0.00,,---,0.00,VWS V14.01,2013-06-09 08:50:00,
2013-06-09 04:55:00,58.8,58.5,30.03,WSW,238,2.2,3.6,99,0.00,,---,0.00,VWS V14.01,2013-06-09 08:55:00,
2013-06-09 05:00:00,58.8,58.5,30.06,SSW,201,5.4,6.3,99,0.00,,---,0.00,VWS V14.01,2013-06-09 09:00:00,
2013-06-09 05:05:00,58.8,58.5,30.03,WSW,238,4.9,4.9,99,0.00,,---,0.00,VWS V14.01,2013-06-09 09:05:00,
2013-06-09 05:10:00,55.4,55.4,30.06,SSW,200,2.7,4.5,100,0.00,,---,0.00,VWS V14.01,2013-06-09 09:10:00,
2013-06-09 05:15:00,58.8,58.5,30.03,SW,218,6.3,8.1,99,0.00,,---,0.00,VWS V14.01,2013-06-09 09:15:00,
2013-06-09 05:20:00,55.4,55.4,30.06,SSE,152,0.0,2.7,100,0.00,,---,0.00,VWS V14.01,2013-06-09 09:20:00,
2013-06-09 05:25:00,54.7,54.7,30.06,SSE,152,0.0,0.0,100,0.00,,---,0.00,VWS V14.01,2013-06-09 09:25:00,
2013-06-09 05:30:00,58.8,58.5,30.03,SW,223,4.5,8.1,99,0.00,,---,0.00,VWS V14.01,2013-06-09 09:30:00,
2013-06-09 05:35:00,58.8,58.5,30.03,SW,223,4.0,6.3,99,0.00,,---,0.00,VWS V14.01,2013-06-09 09:35:00,
2013-06-09 05:40:00,54.1,54.1,30.06,SSE,154,0.0,0.0,100,0.00,,---,0.00,VWS V14.01,2013-06-09 09:40:00,
2013-06-09 05:45:00,54.1,54.1,30.06,SSE,154,0.0,0.0,100,0.00,,---,0.00,VWS V14.01,2013-06-09 09:45:00,
2013-06-09 05:50:00,54.3,54.3,30.06,South,180,3.1,4.9,100,0.00,,---,0.00,VWS V14.01,2013-06-09 09:50:00,
2013-06-09 05:55:00,55.4,55.4,30.06,South,190,8.1,8.5,100,0.00,,---,0.00,VWS V14.01,2013-06-09 09:55:00,
2013-06-09 06:00:00,56.3,56.3,30.06,South,191,4.0,8.1,100,0.00,,---,0.00,VWS V14.01,2013-06-09 10:00:00,
2013-06-09 06:05:00,56.1,56.1,30.06,SSW,201,2.2,5.4,100,0.00,,---,0.00,VWS V14.01,2013-06-09 10:05:00,
2013-06-09 06:10:00,56.1,56.1,30.06,South,190,0.0,0.0,100,0.00,,---,0.00,VWS V14.01,2013-06-09 10:10:00,
2013-06-09 06:15:00,55.4,55.4,30.06,SSE,150,2.7,4.0,100,0.00,,---,0.00,VWS V14.01,2013-06-09 10:15:00,
2013-06-09 06:20:00,55.9,55.9,30.06,South,190,0.0,0.0,100,0.00,,---,0.00,VWS V14.01,2013-06-09 10:20:00,
2013-06-09 06:25:00,56.1,56.1,30.06,South,190,0.0,0.0,100,0.00,,---,0.00,VWS V14.01,2013-06-09 10:25:00,
2013-06-09 06:30:00,56.1,56.1,30.09,South,190,0.0,0.0,100,0.00,,---,0.00,VWS V14.01,2013-06-09 10:30:00,
2013-06-09 06:35:00,56.5,56.5,30.09,South,190,0.0,0.0,100,0.00,,---,0.00,VWS V14.01,2013-06-09 10:35:00,
2013-06-09 06:40:00,54.1,54.1,30.06,SSE,154,0.0,0.0,100,0.00,,---,0.00,VWS V14.01,2013-06-09 10:40:00,
2013-06-09 06:45:00,57.2,57.2,30.09,South,190,4.5,6.3,100,0.00,,---,0.00,VWS V14.01,2013-06-09 10:45:00,
2013-06-09 06:50:00,54.3,54.3,30.06,South,180,3.1,4.9,100,0.00,,---,0.00,VWS V14.01,2013-06-09 10:50:00,
2013-06-09 06:55:00,57.7,57.7,30.09,South,171,0.0,0.0,100,0.00,,---,0.00,VWS V14.01,2013-06-09 10:55:00,
2013-06-09 07:00:00,58.1,58.1,30.09,South,171,0.0,0.0,100,0.00,,---,0.00,VWS V14.01,2013-06-09 11:00:00,
2013-06-09 07:05:00,56.8,56.8,30.06,South,190,0.0,5.4,100,0.00,,---,0.00,VWS V14.01,2013-06-09 11:05:00,
2013-06-09 07:10:00,58.6,58.6,30.09,South,171,0.0,0.0,100,0.00,,---,0.00,VWS V14.01,2013-06-09 11:10:00,
2013-06-09 07:15:00,55.8,55.8,30.06,South,190,0.0,0.0,100,0.00,,---,0.00,VWS V14.01,2013-06-09 11:15:00,
2013-06-09 07:20:00,59.5,59.5,30.09,South,171,0.0,0.0,100,0.00,,---,0.00,VWS V14.01,2013-06-09 11:20:00,
2013-06-09 07:25:00,60.3,60.3,30.09,South,171,0.0,0.0,100,0.00,,---,0.00,VWS V14.01,2013-06-09 11:25:00,
2013-06-09 07:30:00,60.3,60.3,30.09,South,171,0.0,0.0,100,0.00,,---,0.00,VWS V14.01,2013-06-09 11:30:00,
2013-06-09 07:35:00,60.4,60.4,30.09,West,274,0.0,4.9,100,0.00,,---,0.00,VWS V14.01,2013-06-09 11:35:00,
2013-06-09 07:40:00,56.7,56.7,30.09,South,191,2.2,4.9,100,0.00,,---,0.00,VWS V14.01,2013-06-09 11:40:00,
2013-06-09 07:45:00,61.0,61.0,30.09,SSW,202,4.9,7.6,100,0.00,,---,0.00,VWS V14.01,2013-06-09 11:45:00,
2013-06-09 07:50:00,57.6,57.6,30.09,South,171,0.0,4.5,100,0.00,,---,0.00,VWS V14.01,2013-06-09 11:50:00,
2013-06-09 07:55:00,62.8,61.3,30.09,SW,230,0.0,4.5,95,0.00,,---,0.00,VWS V14.01,2013-06-09 11:55:00,
2013-06-09 08:00:00,63.1,60.2,30.09,West,269,4.5,6.7,90,0.00,,---,0.00,VWS V14.01,2013-06-09 12:00:00,
2013-06-09 08:05:00,58.3,58.3,30.09,South,171,0.0,0.0,100,0.00,,---,0.00,VWS V14.01,2013-06-09 12:05:00,
2013-06-09 08:10:00,63.7,58.4,30.09,NW,307,1.8,8.1,83,0.00,,---,0.00,VWS V14.01,2013-06-09 12:10:00,
2013-06-09 08:15:00,64.0,58.8,30.12,WNW,300,3.6,4.9,83,0.00,,---,0.00,VWS V14.01,2013-06-09 12:15:00,
2013-06-09 08:20:00,65.1,58.5,30.12,West,270,2.7,5.8,79,0.00,,---,0.00,VWS V14.01,2013-06-09 12:20:00,
2013-06-09 08:25:00,60.3,60.3,30.09,South,171,0.0,0.0,100,0.00,,---,0.00,VWS V14.01,2013-06-09 12:25:00,
2013-06-09 08:30:00,65.1,58.5,30.12,West,259,0.0,3.6,79,0.00,,---,0.00,VWS V14.01,2013-06-09 12:30:00,
2013-06-09 08:35:00,65.7,58.6,30.12,NNE,15,2.2,4.5,78,0.00,,---,0.00,VWS V14.01,2013-06-09 12:35:00,
2013-06-09 08:40:00,61.0,61.0,30.09,WSW,243,5.4,10.7,100,0.00,,---,0.00,VWS V14.01,2013-06-09 12:40:00,
2013-06-09 08:45:00,67.5,59.6,30.12,NW,308,7.2,7.6,76,0.00,,---,0.00,VWS V14.01,2013-06-09 12:45:00,
2013-06-09 08:50:00,62.4,62.4,30.09,WSW,256,0.0,7.2,100,0.00,,---,0.00,VWS V14.01,2013-06-09 12:50:00,
2013-06-09 08:55:00,67.5,59.6,30.12,WSW,256,7.6,7.6,76,0.00,,---,0.00,VWS V14.01,2013-06-09 12:55:00,
2013-06-09 09:00:00,67.5,59.6,30.12,West,281,4.5,9.4,76,0.00,,---,0.00,VWS V14.01,2013-06-09 13:00:00,
2013-06-09 09:05:00,67.5,59.6,30.12,SW,223,0.0,6.7,76,0.00,,---,0.00,VWS V14.01,2013-06-09 13:05:00,
2013-06-09 09:10:00,67.5,59.6,30.12,South,185,0.0,3.6,76,0.00,,---,0.00,VWS V14.01,2013-06-09 13:10:00,
2013-06-09 09:15:00,64.0,58.8,30.12,WNW,300,3.6,4.9,83,0.00,,---,0.00,VWS V14.01,2013-06-09 13:15:00,
2013-06-09 09:20:00,67.5,59.6,30.12,NW,307,4.5,8.1,76,0.00,,---,0.00,VWS V14.01,2013-06-09 13:20:00,
2013-06-09 09:25:00,65.1,58.5,30.12,WSW,254,0.9,6.7,79,0.00,,---,0.00,VWS V14.01,2013-06-09 13:25:00,
2013-06-09 09:30:00,67.5,59.6,30.12,NW,314,1.8,8.5,76,0.00,,---,0.00,VWS V14.01,2013-06-09 13:30:00,
2013-06-09 09:35:00,65.7,58.6,30.12,NNE,15,2.2,4.5,78,0.00,,---,0.00,VWS V14.01,2013-06-09 13:35:00,
2013-06-09 09:40:00,66.6,58.8,30.12,SW,229,0.0,8.1,76,0.00,,---,0.00,VWS V14.01,2013-06-09 13:40:00,
2013-06-09 09:45:00,67.5,59.6,30.12,NNW,339,5.8,9.8,76,0.00,,---,0.00,VWS V14.01,2013-06-09 13:45:00,
2013-06-09 09:50:00,67.5,59.6,30.12,NW,323,3.1,11.2,76,0.00,,---,0.00,VWS V14.01,2013-06-09 13:50:00,
2013-06-09 09:55:00,67.5,59.6,30.12,West,273,0.0,9.8,76,0.00,,---,0.00,VWS V14.01,2013-06-09 13:55:00,
2013-06-09 10:00:00,67.5,59.6,30.12,West,281,4.5,9.4,76,0.00,,---,0.00,VWS V14.01,2013-06-09 14:00:00,
2013-06-09 10:05:00,67.5,59.6,30.12,NW,316,8.9,9.4,76,0.00,,---,0.00,VWS V14.01,2013-06-09 14:05:00,
2013-06-09 10:10:00,67.5,59.6,30.12,South,185,0.0,3.6,76,0.00,,---,0.00,VWS V14.01,2013-06-09 14:10:00,
2013-06-09 10:15:00,67.5,59.6,30.12,NW,304,7.6,8.9,76,0.00,,---,0.00,VWS V14.01,2013-06-09 14:15:00,
2013-06-09 10:20:00,67.5,59.6,30.12,WNW,287,11.2,11.2,76,0.00,,---,0.00,VWS V14.01,2013-06-09 14:20:00,
2013-06-09 10:25:00,67.5,59.6,30.12,NW,309,3.6,6.7,76,0.00,,---,0.00,VWS V14.01,2013-06-09 14:25:00,
2013-06-09 10:30:00,72.3,59.0,30.12,NNW,335,5.8,10.7,63,0.00,,---,0.00,VWS V14.01,2013-06-09 14:30:00,
2013-06-09 10:35:00,67.5,59.6,30.12,North,352,4.0,8.9,76,0.00,,---,0.00,VWS V14.01,2013-06-09 14:35:00,
2013-06-09 10:40:00,73.2,59.9,30.12,West,276,4.0,11.6,63,0.00,,---,0.00,VWS V14.01,2013-06-09 14:40:00,
2013-06-09 10:45:00,67.5,59.6,30.12,NNW,339,5.8,9.8,76,0.00,,---,0.00,VWS V14.01,2013-06-09 14:45:00,
2013-06-09 10:50:00,73.2,59.9,30.12,NNW,332,5.8,8.1,63,0.00,,---,0.00,VWS V14.01,2013-06-09 14:50:00,
2013-06-09 10:55:00,73.2,59.9,30.12,NW,326,7.2,13.4,63,0.00,,---,0.00,VWS V14.01,2013-06-09 14:55:00,
2013-06-09 11:00:00,73.2,59.9,30.12,NW,311,4.9,12.5,63,0.00,,---,0.00,VWS V14.01,2013-06-09 15:00:00,
2013-06-09 11:05:00,73.2,59.9,30.12,NW,326,3.1,9.4,63,0.00,,---,0.00,VWS V14.01,2013-06-09 15:05:00,
2013-06-09 11:10:00,67.5,59.6,30.12,North,360,4.5,9.8,76,0.00,,---,0.00,VWS V14.01,2013-06-09 15:10:00,
2013-06-09 11:15:00,73.2,59.9,30.12,WNW,298,4.9,10.7,63,0.00,,---,0.00,VWS V14.01,2013-06-09 15:15:00,
2013-06-09 11:20:00,67.5,59.6,30.12,WNW,287,11.2,11.2,76,0.00,,---,0.00,VWS V14.01,2013-06-09 15:20:00,
2013-06-09 11:25:00,73.2,59.9,30.12,North,360,10.3,12.1,63,0.00,,---,0.00,VWS V14.01,2013-06-09 15:25:00,
2013-06-09 11:30:00,72.3,59.0,30.12,NNW,335,5.8,10.7,63,0.00,,---,0.00,VWS V14.01,2013-06-09 15:30:00,
2013-06-09 11:35:00,73.2,59.9,30.09,NNW,332,11.6,11.6,63,0.00,,---,0.00,VWS V14.01,2013-06-09 15:35:00,
2013-06-09 11:40:00,73.2,59.9,30.09,NW,326,4.5,12.1,63,0.00,,---,0.00,VWS V14.01,2013-06-09 15:40:00,
2013-06-09 11:45:00,73.2,59.9,30.12,NNW,336,4.0,13.4,63,0.00,,---,0.00,VWS V14.01,2013-06-09 15:45:00,
2013-06-09 11:50:00,73.2,59.9,30.12,North,8,3.6,8.9,63,0.00,,---,0.00,VWS V14.01,2013-06-09 15:50:00,
2013-06-09 11:55:00,73.2,59.9,30.12,NW,326,7.2,13.4,63,0.00,,---,0.00,VWS V14.01,2013-06-09 15:55:00,
2013-06-09 12:00:00,73.2,59.9,30.12,North,2,3.6,14.8,63,0.00,,---,0.00,VWS V14.01,2013-06-09 16:00:00,
2013-06-09 12:05:00,73.2,59.9,30.12,NW,326,3.1,9.4,63,0.00,,---,0.00,VWS V14.01,2013-06-09 16:05:00,
2013-06-09 12:10:00,73.2,59.9,30.12,WNW,298,8.9,10.7,63,0.00,,---,0.00,VWS V14.01,2013-06-09 16:10:00,
2013-06-09 12:15:00,73.2,59.9,30.12,West,266,7.2,14.3,63,0.00,,---,0.00,VWS V14.01,2013-06-09 16:15:00,
2013-06-09 12:20:00,73.2,59.9,30.12,NNW,347,10.3,10.3,63,0.00,,---,0.00,VWS V14.01,2013-06-09 16:20:00,
2013-06-09 12:25:00,73.2,59.9,30.12,North,360,10.3,12.1,63,0.00,,---,0.00,VWS V14.01,2013-06-09 16:25:00,
2013-06-09 12:30:00,73.2,59.9,30.12,NW,305,5.8,5.8,63,0.00,,---,0.00,VWS V14.01,2013-06-09 16:30:00,
2013-06-09 12:35:00,73.2,59.9,30.12,NW,316,7.2,10.3,63,0.00,,---,0.00,VWS V14.01,2013-06-09 16:35:00,
2013-06-09 12:40:00,73.2,59.9,30.09,NW,326,4.5,12.1,63,0.00,,---,0.00,VWS V14.01,2013-06-09 16:40:00,
2013-06-09 12:45:00,73.2,59.9,30.12,NW,318,4.0,10.7,63,0.00,,---,0.00,VWS V14.01,2013-06-09 16:45:00,
2013-06-09 12:50:00,73.2,59.9,30.12,North,8,3.6,8.9,63,0.00,,---,0.00,VWS V14.01,2013-06-09 16:50:00,
2013-06-09 12:55:00,73.2,59.9,30.12,North,359,5.4,8.1,63,0.00,,---,0.00,VWS V14.01,2013-06-09 16:55:00,
2013-06-09 13:00:00,73.2,59.9,30.12,North,2,3.6,14.8,63,0.00,,---,0.00,VWS V14.01,2013-06-09 17:00:00,
2013-06-09 13:05:00,73.2,59.9,30.12,NW,312,4.5,13.4,63,0.00,,---,0.00,VWS V14.01,2013-06-09 17:05:00,
2013-06-09 13:10:00,73.2,59.9,30.12,WNW,298,8.9,10.7,63,0.00,,---,0.00,VWS V14.01,2013-06-09 17:10:00,
2013-06-09 13:15:00,73.2,59.9,30.12,WNW,295,4.5,7.6,63,0.00,,---,0.00,VWS V14.01,2013-06-09 17:15:00,
2013-06-09 13:20:00,73.2,59.9,30.12,NNW,347,10.3,10.3,63,0.00,,---,0.00,VWS V14.01,2013-06-09 17:20:00,
2013-06-09 13:25:00,73.2,59.9,30.12,NW,321,6.3,12.5,63,0.00,,---,0.00,VWS V14.01,2013-06-09 17:25:00,
2013-06-09 13:30:00,73.2,59.9,30.12,NW,305,5.8,5.8,63,0.00,,---,0.00,VWS V14.01,2013-06-09 17:30:00,
2013-06-09 13:35:00,73.2,59.9,30.12,North,359,5.4,11.6,63,0.00,,---,0.00,VWS V14.01,2013-06-09 17:35:00,
2013-06-09 13:40:00,73.2,59.9,30.12,North,7,2.2,11.6,63,0.00,,---,0.00,VWS V14.01,2013-06-09 17:40:00,
2013-06-09 13:45:00,73.2,59.9,30.12,NW,318,4.0,10.7,63,0.00,,---,0.00,VWS V14.01,2013-06-09 17:45:00,
2013-06-09 13:50:00,78.3,63.2,30.09,North,11,5.8,6.7,60,0.00,,---,0.00,VWS V14.01,2013-06-09 17:50:00,
2013-06-09 13:55:00,73.2,59.9,30.12,North,359,5.4,8.1,63,0.00,,---,0.00,VWS V14.01,2013-06-09 17:55:00,
2013-06-09 14:00:00,78.3,63.2,30.09,North,352,2.2,11.2,60,0.00,,---,0.00,VWS V14.01,2013-06-09 18:00:00,
2013-06-09 14:05:00,73.2,59.9,30.12,NW,312,4.5,13.4,63,0.00,,---,0.00,VWS V14.01,2013-06-09 18:05:00,
2013-06-09 14:10:00,77.5,61.6,30.09,NW,321,7.2,8.1,58,0.00,,---,0.00,VWS V14.01,2013-06-09 18:10:00,
2013-06-09 14:15:00,73.2,59.9,30.12,WNW,295,4.5,7.6,63,0.00,,---,0.00,VWS V14.01,2013-06-09 18:15:00,
2013-06-09 14:20:00,77.2,61.3,30.09,WNW,288,3.1,3.6,58,0.00,,---,0.00,VWS V14.01,2013-06-09 18:20:00,
2013-06-09 14:25:00,73.2,59.9,30.12,NW,321,6.3,12.5,63,0.00,,---,0.00,VWS V14.01,2013-06-09 18:25:00,
2013-06-09 14:30:00,77.2,61.3,30.09,NNE,12,7.2,8.9,58,0.00,,---,0.00,VWS V14.01,2013-06-09 18:30:00,
2013-06-09 14:35:00,73.2,59.9,30.12,North,359,5.4,11.6,63,0.00,,---,0.00,VWS V14.01,2013-06-09 18:35:00,
2013-06-09 14:40:00,77.2,61.3,30.09,NE,56,7.2,9.8,58,0.00,,---,0.00,VWS V14.01,2013-06-09 18:40:00,
2013-06-09 14:45:00,78.3,63.2,30.09,NNW,342,2.2,8.5,60,0.00,,---,0.00,VWS V14.01,2013-06-09 18:45:00,
2013-06-09 14:50:00,77.2,61.3,30.09,NNE,29,2.2,8.9,58,0.00,,---,0.00,VWS V14.01,2013-06-09 18:50:00,
2013-06-09 14:55:00,78.3,63.2,30.09,North,357,7.2,9.8,60,0.00,,---,0.00,VWS V14.01,2013-06-09 18:55:00,
2013-06-09 15:00:00,77.2,61.3,30.09,NNW,343,4.9,8.5,58,0.00,,---,0.00,VWS V14.01,2013-06-09 19:00:00,
2013-06-09 15:05:00,77.5,61.6,30.09,NW,314,6.7,7.2,58,0.00,,---,0.00,VWS V14.01,2013-06-09 19:05:00,
2013-06-09 15:10:00,78.4,62.0,30.09,North,349,2.7,6.3,57,0.00,,---,0.00,VWS V14.01,2013-06-09 19:10:00,
2013-06-09 15:15:00,77.2,61.3,30.09,NNW,330,0.0,8.9,58,0.00,,---,0.00,VWS V14.01,2013-06-09 19:15:00,
2013-06-09 15:20:00,78.3,61.8,30.09,NNE,18,4.0,9.4,57,0.00,,---,0.00,VWS V14.01,2013-06-09 19:20:00,
2013-06-09 15:25:00,81.7,65.0,30.09,NNE,26,6.7,8.1,57,0.00,,---,0.00,VWS V14.01,2013-06-09 19:25:00,
2013-06-09 15:30:00,81.7,65.0,30.09,NNE,30,5.4,8.1,57,0.00,,---,0.00,VWS V14.01,2013-06-09 19:30:00,
2013-06-09 15:35:00,81.7,65.0,30.09,North,360,7.6,10.7,57,0.00,,---,0.00,VWS V14.01,2013-06-09 19:35:00,
2013-06-09 15:40:00,83.5,66.2,30.09,North,11,4.0,8.5,56,0.00,,---,0.00,VWS V14.01,2013-06-09 19:40:00,
2013-06-09 15:45:00,83.5,66.2,30.09,North,5,4.5,7.6,56,0.00,,---,0.00,VWS V14.01,2013-06-09 19:45:00,
2013-06-09 15:50:00,82.6,64.3,30.09,ENE,66,3.1,8.1,54,0.00,,---,0.00,VWS V14.01,2013-06-09 19:50:00,
2013-06-09 15:55:00,82.6,64.3,30.09,NNW,329,8.9,13.4,54,0.00,,---,0.00,VWS V14.01,2013-06-09 19:55:00,
2013-06-09 16:00:00,82.6,64.3,30.09,NNW,346,2.2,10.3,54,0.00,,---,0.00,VWS V14.01,2013-06-09 20:00:00,
2013-06-09 16:05:00,83.7,65.3,30.09,NNE,23,0.0,8.1,54,0.00,,---,0.00,VWS V14.01,2013-06-09 20:05:00,
2013-06-09 16:10:00,83.8,65.4,30.09,North,359,0.4,6.3,54,0.00,,---,0.00,VWS V14.01,2013-06-09 20:10:00,
2013-06-09 16:15:00,83.8,65.4,30.09,NNW,345,2.7,7.2,54,0.00,,---,0.00,VWS V14.01,2013-06-09 20:15:00,
2013-06-09 16:20:00,82.8,64.4,30.09,North,357,0.0,4.5,54,0.00,,---,0.00,VWS V14.01,2013-06-09 20:20:00,
2013-06-09 16:25:00,82.8,64.4,30.09,NW,311,4.9,7.6,54,0.00,,---,0.00,VWS V14.01,2013-06-09 20:25:00,
2013-06-09 16:30:00,82.8,64.4,30.09,NW,308,4.5,8.5,54,0.00,,---,0.00,VWS V14.01,2013-06-09 20:30:00,
2013-06-09 16:35:00,82.9,64.6,30.09,West,278,6.3,7.6,54,0.00,,---,0.00,VWS V14.01,2013-06-09 20:35:00,
2013-06-09 16:40:00,82.9,64.6,30.09,WNW,287,0.0,6.7,54,0.00,,---,0.00,VWS V14.01,2013-06-09 20:40:00,
2013-06-09 16:45:00,82.9,64.6,30.09,NNE,29,5.8,5.8,54,0.00,,---,0.00,VWS V14.01,2013-06-09 20:45:00,
2013-06-09 16:50:00,82.9,64.6,30.09,NNE,16,0.0,7.6,54,0.00,,---,0.00,VWS V14.01,2013-06-09 20:50:00,
2013-06-09 16:55:00,82.9,64.6,30.09,North,360,3.6,8.1,54,0.00,,---,0.00,VWS V14.01,2013-06-09 20:55:00,
2013-06-09 17:00:00,82.9,64.6,30.09,North,359,3.1,7.6,54,0.00,,---,0.00,VWS V14.01,2013-06-09 21:00:00,
2013-06-09 17:05:00,82.9,64.6,30.09,WNW,294,4.5,5.8,54,0.00,,---,0.00,VWS V14.01,2013-06-09 21:05:00,
2013-06-09 17:10:00,82.9,64.6,30.09,WNW,294,0.0,4.5,54,0.00,,---,0.00,VWS V14.01,2013-06-09 21:10:00,
2013-06-09 17:15:00,82.9,64.6,30.09,WNW,295,2.7,4.0,54,0.00,,---,0.00,VWS V14.01,2013-06-09 21:15:00,
2013-06-09 17:20:00,82.9,64.6,30.09,WNW,301,0.9,2.7,54,0.00,,---,0.00,VWS V14.01,2013-06-09 21:20:00,
2013-06-09 17:25:00,82.9,64.6,30.09,NNE,33,1.3,4.0,54,0.00,,---,0.00,VWS V14.01,2013-06-09 21:25:00,
2013-06-09 17:30:00,82.9,64.6,30.09,NE,35,0.0,2.7,54,0.00,,---,0.00,VWS V14.01,2013-06-09 21:30:00,
2013-06-09 17:35:00,82.9,64.6,30.09,West,278,6.3,7.6,54,0.00,,---,0.00,VWS V14.01,2013-06-09 21:35:00,
2013-06-09 17:40:00,82.9,64.6,30.09,WNW,287,0.0,6.7,54,0.00,,---,0.00,VWS V14.01,2013-06-09 21:40:00,
2013-06-09 17:45:00,82.9,64.6,30.09,SW,226,0.9,5.4,54,0.00,,---,0.00,VWS V14.01,2013-06-09 21:45:00,
2013-06-09 17:50:00,82.9,64.6,30.09,NNE,16,0.0,7.6,54,0.00,,---,0.00,VWS V14.01,2013-06-09 21:50:00,
2013-06-09 17:55:00,82.9,64.6,30.09,WSW,239,2.2,4.9,54,0.00,,---,0.00,VWS V14.01,2013-06-09 21:55:00,
2013-06-09 18:00:00,82.9,64.6,30.06,WSW,246,3.1,4.0,54,0.00,,---,0.00,VWS V14.01,2013-06-09 22:00:00,
2013-06-09 18:05:00,82.9,64.6,30.09,WNW,294,4.5,5.8,54,0.00,,---,0.00,VWS V14.01,2013-06-09 22:05:00,
2013-06-09 18:10:00,83.3,63.3,30.06,WSW,249,2.7,4.0,51,0.00,,---,0.00,VWS V14.01,2013-06-09 22:10:00,
2013-06-09 18:15:00,82.9,64.6,30.09,WNW,295,2.7,4.0,54,0.00,,---,0.00,VWS V14.01,2013-06-09 22:15:00,
2013-06-09 18:20:00,83.3,63.3,30.06,WSW,247,0.0,2.2,51,0.00,,---,0.00,VWS V14.01,2013-06-09 22:20:00,
2013-06-09 18:25:00,82.9,64.6,30.09,NNE,33,1.3,4.0,54,0.00,,---,0.00,VWS V14.01,2013-06-09 22:25:00,
2013-06-09 18:30:00,82.9,63.5,30.06,WSW,249,0.0,0.0,52,0.00,,---,0.00,VWS V14.01,2013-06-09 22:30:00,
2013-06-09 18:35:00,82.9,64.6,30.09,NE,36,2.7,2.7,54,0.00,,---,0.00,VWS V14.01,2013-06-09 22:35:00,
2013-06-09 18:40:00,81.7,62.4,30.06,WSW,247,0.0,0.0,52,0.00,,---,0.00,VWS V14.01,2013-06-09 22:40:00,
2013-06-09 18:45:00,82.9,64.6,30.09,SW,226,0.9,5.4,54,0.00,,---,0.00,VWS V14.01,2013-06-09 22:45:00,
2013-06-09 18:50:00,79.9,61.8,30.06,WSW,249,0.0,0.9,54,0.00,,---,0.00,VWS V14.01,2013-06-09 22:50:00,
2013-06-09 18:55:00,79.0,62.5,30.06,WSW,249,0.9,1.8,57,0.00,,---,0.00,VWS V14.01,2013-06-09 22:55:00,
2013-06-09 19:00:00,82.9,64.6,30.06,WSW,246,3.1,4.0,54,0.00,,---,0.00,VWS V14.01,2013-06-09 23:00:00,
2013-06-09 19:05:00,79.7,63.1,30.09,WSW,249,0.0,0.0,57,0.00,,---,0.00,VWS V14.01,2013-06-09 23:05:00,
2013-06-09 19:10:00,83.3,63.3,30.06,WSW,249,2.7,4.0,51,0.00,,---,0.00,VWS V14.01,2013-06-09 23:10:00,
2013-06-09 19:15:00,80.2,63.6,30.09,WSW,249,0.0,0.0,57,0.00,,---,0.00,VWS V14.01,2013-06-09 23:15:00,
2013-06-09 19:20:00,83.3,63.3,30.06,WSW,247,0.0,2.2,51,0.00,,---,0.00,VWS V14.01,2013-06-09 23:20:00,
2013-06-09 19:25:00,77.4,63.8,30.09,WSW,249,0.0,0.0,63,0.00,,---,0.00,VWS V14.01,2013-06-09 23:25:00,
2013-06-09 19:30:00,82.9,63.5,30.06,WSW,249,0.0,0.0,52,0.00,,---,0.00,VWS V14.01,2013-06-09 23:30:00,
2013-06-09 19:35:00,75.6,63.4,30.09,WSW,247,0.0,0.0,66,0.00,,---,0.00,VWS V14.01,2013-06-09 23:35:00,
2013-06-09 19:40:00,74.8,62.7,30.09,WSW,249,0.0,0.0,66,0.00,,---,0.00,VWS V14.01,2013-06-09 23:40:00,
2013-06-09 19:45:00,73.2,61.2,30.09,WSW,249,0.0,0.0,66,0.00,,---,0.00,VWS V14.01,2013-06-09 23:45:00,
2013-06-09 19:50:00,72.0,61.2,30.09,WSW,249,0.0,0.0,69,0.00,,---,0.00,VWS V14.01,2013-06-09 23:50:00,
2013-06-09 19:55:00,79.0,62.5,30.06,WSW,249,0.9,1.8,57,0.00,,---,0.00,VWS V14.01,2013-06-09 23:55:00,
2013-06-09 20:00:00,69.6,60.6,30.09,WSW,249,0.0,0.0,73,0.00,,---,0.00,VWS V14.01,2013-06-10 00:00:00,
2013-06-09 20:05:00,79.7,63.1,30.09,WSW,249,0.0,0.0,57,0.00,,---,0.00,VWS V14.01,2013-06-10 00:05:00,
2013-06-09 20:10:00,68.0,60.2,30.09,WSW,247,0.0,0.0,76,0.00,,---,0.00,VWS V14.01,2013-06-10 00:10:00,
2013-06-09 20:15:00,67.3,60.2,30.09,WSW,249,0.0,0.4,78,0.00,,---,0.00,VWS V14.01,2013-06-10 00:15:00,
2013-06-09 20:20:00,66.9,60.2,30.09,WSW,246,0.0,0.0,79,0.00,,---,0.00,VWS V14.01,2013-06-10 00:20:00,
2013-06-09 20:25:00,67.3,59.5,30.09,WSW,247,0.0,0.0,76,0.00,,---,0.00,VWS V14.01,2013-06-10 00:25:00,
2013-06-09 20:30:00,76.1,63.9,30.09,WSW,249,0.0,0.0,66,0.00,,---,0.00,VWS V14.01,2013-06-10 00:30:00,
2013-06-09 20:35:00,66.4,59.3,30.09,WSW,249,0.0,0.0,78,0.00,,---,0.00,VWS V14.01,2013-06-10 00:35:00,
2013-06-09 20:40:00,74.8,62.7,30.09,WSW,249,0.0,0.0,66,0.00,,---,0.00,VWS V14.01,2013-06-10 00:40:00,
2013-06-09 20:45:00,65.8,58.8,30.09,WSW,249,0.0,0.0,78,0.00,,---,0.00,VWS V14.01,2013-06-10 00:45:00,
2013-06-09 20:50:00,72.0,61.2,30.09,WSW,249,0.0,0.0,69,0.00,,---,0.00,VWS V14.01,2013-06-10 00:50:00,
2013-06-09 20:55:00,65.3,58.6,30.09,WSW,247,0.0,1.8,79,0.00,,---,0.00,VWS V14.01,2013-06-10 00:55:00,
2013-06-09 21:00:00,65.3,58.6,30.09,WSW,249,0.0,0.0,79,0.00,,---,0.00,VWS V14.01,2013-06-10 01:00:00,
2013-06-09 21:05:00,65.3,58.6,30.09,WSW,247,0.0,0.0,79,0.00,,---,0.00,VWS V14.01,2013-06-10 01:05:00,
2013-06-09 21:10:00,65.3,58.6,30.09,WSW,249,0.0,0.0,79,0.00,,---,0.00,VWS V14.01,2013-06-10 01:10:00,
2013-06-09 21:15:00,67.3,60.2,30.09,WSW,249,0.0,0.4,78,0.00,,---,0.00,VWS V14.01,2013-06-10 01:15:00,
2013-06-09 21:20:00,65.3,58.6,30.09,WSW,249,0.0,0.0,79,0.00,,---,0.00,VWS V14.01,2013-06-10 01:20:00,
2013-06-09 21:25:00,67.3,59.5,30.09,WSW,247,0.0,0.0,76,0.00,,---,0.00,VWS V14.01,2013-06-10 01:25:00,
2013-06-09 21:30:00,65.3,58.6,30.09,WSW,247,0.0,0.0,79,0.00,,---,0.00,VWS V14.01,2013-06-10 01:30:00,
2013-06-09 21:35:00,66.4,59.3,30.09,WSW,249,0.0,0.0,78,0.00,,---,0.00,VWS V14.01,2013-06-10 01:35:00,
2013-06-09 21:40:00,65.3,58.6,30.09,WSW,247,0.0,0.0,79,0.00,,---,0.00,VWS V14.01,2013-06-10 01:40:00,
2013-06-09 21:45:00,65.3,58.6,30.09,WSW,249,0.0,0.4,79,0.00,,---,0.00,VWS V14.01,2013-06-10 01:45:00,
2013-06-09 21:50:00,65.3,58.6,30.09,WSW,247,0.0,0.0,79,0.00,,---,0.00,VWS V14.01,2013-06-10 01:50:00,
2013-06-09 21:55:00,65.3,58.6,30.09,WSW,247,0.0,1.8,79,0.00,,---,0.00,VWS V14.01,2013-06-10 01:55:00,
2013-06-09 22:00:00,65.3,58.6,30.09,WSW,249,3.1,4.0,79,0.00,,---,0.00,VWS V14.01,2013-06-10 02:00:00,
2013-06-09 22:05:00,65.3,58.6,30.09,WSW,243,0.0,3.1,79,0.00,,---,0.00,VWS V14.01,2013-06-10 02:05:00,
2013-06-09 22:10:00,65.3,58.6,30.09,WSW,249,0.0,0.0,79,0.00,,---,0.00,VWS V14.01,2013-06-10 02:10:00,
2013-06-09 22:15:00,65.3,58.6,30.09,WSW,249,0.0,0.0,79,0.00,,---,0.00,VWS V14.01,2013-06-10 02:15:00,
2013-06-09 22:20:00,65.3,58.6,30.09,WSW,249,0.0,0.0,79,0.00,,---,0.00,VWS V14.01,2013-06-10 02:20:00,
2013-06-09 22:25:00,65.3,58.6,30.09,WSW,249,0.0,0.4,79,0.00,,---,0.00,VWS V14.01,2013-06-10 02:25:00,
2013-06-09 22:30:00,65.3,58.6,30.09,WSW,247,0.0,0.0,79,0.00,,---,0.00,VWS V14.01,2013-06-10 02:30:00,
2013-06-09 22:35:00,65.3,58.6,30.09,WSW,249,0.0,0.0,79,0.00,,---,0.00,VWS V14.01,2013-06-10 02:35:00,
2013-06-09 22:40:00,65.3,58.6,30.09,WSW,249,3.1,3.6,79,0.00,,---,0.00,VWS V14.01,2013-06-10 02:40:00,
2013-06-09 22:45:00,65.3,58.6,30.12,WSW,249,1.8,3.1,79,0.00,,---,0.00,VWS V14.01,2013-06-10 02:45:00,
2013-06-09 22:50:00,65.3,58.6,30.12,WSW,247,0.0,2.7,79,0.00,,---,0.00,VWS V14.01,2013-06-10 02:50:00,
2013-06-09 22:55:00,65.3,58.6,30.12,WSW,247,3.1,3.6,79,0.00,,---,0.00,VWS V14.01,2013-06-10 02:55:00,
2013-06-09 23:00:00,65.3,58.6,30.09,WSW,247,0.0,3.6,79,0.00,,---,0.00,VWS V14.01,2013-06-10 03:00:00,
2013-06-09 23:05:00,65.3,58.6,30.09,WSW,243,0.0,3.1,79,0.00,,---,0.00,VWS V14.01,2013-06-10 03:05:00,
2013-06-09 23:10:00,65.3,58.6,30.09,WSW,249,0.0,0.0,79,0.00,,---,0.00,VWS V14.01,2013-06-10 03:10:00,
2013-06-09 23:15:00,65.3,58.6,30.09,WSW,249,0.0,0.0,79,0.00,,---,0.00,VWS V14.01,2013-06-10 03:15:00,
2013-06-09 23:20:00,65.3,58.6,30.09,WSW,249,3.6,4.5,79,0.00,,---,0.00,VWS V14.01,2013-06-10 03:20:00,
2013-06-09 23:25:00,65.3,58.6,30.09,WSW,249,4.0,4.9,79,0.00,,---,0.00,VWS V14.01,2013-06-10 03:25:00,
2013-06-09 23:30:00,65.3,58.6,30.09,WSW,247,3.1,4.5,79,0.00,,---,0.00,VWS V14.01,2013-06-10 03:30:00,
2013-06-09 23:35:00,65.3,58.6,30.09,WSW,249,0.0,0.0,79,0.00,,---,0.00,VWS V14.01,2013-06-10 03:35:00,
2013-06-09 23:40:00,65.3,58.6,30.09,WSW,249,3.6,3.6,79,0.00,,---,0.00,VWS V14.01,2013-06-10 03:40:00,
2013-06-09 23:45:00,65.3,58.6,30.12,WSW,249,1.8,3.1,79,0.00,,---,0.00,VWS V14.01,2013-06-10 03:45:00,
2013-06-09 23:50:00,65.3,58.6,30.09,WSW,249,3.1,3.6,79,0.00,,---,0.00,VWS V14.01,2013-06-10 03:50:00,
2013-06-09 23:55:00,65.3,58.6,30.12,WSW,247,3.1,3.6,79,0.00,,---,0.00,VWS V14.01,2013-06-10 03:55:00,